Stations météo

Publicité
Laval-Etronnier, France (7134): Température de l'air & dewpoint: 10.01.2018 20:00:00 - 16.01.2018 20:00:00 (CET)Laval-Etronnier, France (7134): Température de l'air 5cm: 10.01.2018 20:00:00 - 16.01.2018 20:00:00 (CET)Laval-Etronnier, France (7134): Température de l'air -20cm & Température de l'air -100cm: 10.01.2018 20:00:00 - 16.01.2018 20:00:00 (CET)Laval-Etronnier, France (7134): Vitesse du vent & gusts: 10.01.2018 20:00:00 - 16.01.2018 20:00:00 (CET)Laval-Etronnier, France (7134): Direction du vent: 10.01.2018 20:00:00 - 16.01.2018 20:00:00 (CET)Laval-Etronnier, France (7134): reduced air pressure: 10.01.2018 20:00:00 - 16.01.2018 20:00:00 (CET)Laval-Etronnier, France (7134): visibility: 10.01.2018 20:00:00 - 16.01.2018 20:00:00 (CET)Laval-Etronnier, France (7134): Ensoleillement: 10.01.2018 20:00:00 - 16.01.2018 20:00:00 (CET)Laval-Etronnier, France (7134): Quantités de précipitations: 10.01.2018 20:00:00 - 16.01.2018 20:00:00 (CET)
Date & Time tt [°C] td [°C] tt 5cm [°C] tt -20cm [°C] tt -100cm [°C] ff [km/h] ff [knt] fx [km/h] fx [knt] dd ppp [hPa] vv [km] sd [min] rr [mm]
16.01.2018 20:00:00 8,0 4,4 6,0 8,3 9,6 21 11 51 28 WSW 1005,9 10 0 0,2
16.01.2018 19:00:00 8,5 4,1 6,5 8,5 9,6 26 14 46 25 W 1005,7 10 0 0,0
16.01.2018 18:00:00 8,6 4,6 6,6 8,7 9,6 18 10 50 27 W 1005,9 10 9 0,2
16.01.2018 17:00:00 9,7 4,7 8,5 8,8 9,6 30 16 53 29 W 1006,0 20 40 0,0
16.01.2018 16:00:00 10,5 4,2 9,9 8,9 9,6 29 16 58 31 W 1005,5 20 27 0,0
16.01.2018 15:00:00 11,3 4,3 10,7 8,8 9,6 34 18 58 31 W 1005,6 10 40 0,0
16.01.2018 14:00:00 11,6 3,4 11,6 8,6 9,6 41 22 75 40 W 1006,5 19 54 0,0
16.01.2018 13:00:00 10,3 5,7 9,6 8,5 9,6 34 18 50 27 W 1007,7 10 0 0,0
16.01.2018 12:00:00 9,7 6,8 8,7 8,4 9,6 18 10 53 29 WSW 1008,2 10 2 0,0
16.01.2018 11:00:00 10,3 7,0 8,5 8,2 9,6 18 10 32 17 WSW 1007,9 19 49 0,0
16.01.2018 10:00:00 9,2 7,3 8,2 8,2 9,6 22 12 38 21 W 1007,7 9 0 0,2
16.01.2018 09:00:00 9,4 7,3 7,9 8,3 9,6 21 11 41 22 W 1006,7 20 0 0,0
16.01.2018 08:00:00 9,4 8,0 8,4 8,2 9,6 20 11 55 30 W 1006,2 8 0 0,2
16.01.2018 07:00:00 9,5 7,8 8,2 8,3 9,6 26 14 56 30 WSW 1005,4 20 0 0,0
16.01.2018 06:00:00 9,5 8,4 8,4 8,2 9,6 26 14 48 26 WSW 1005,1 10 0 0,2
16.01.2018 05:00:00 9,2 7,8 7,9 8,2 9,6 22 12 39 21 WSW 1005,2 18 0 0,0
16.01.2018 04:00:00 8,8 7,4 8,0 8,3 9,6 18 10 66 35 WSW 1005,8 20 0 0,0
16.01.2018 03:00:00 9,6 6,9 8,5 8,3 9,6 29 15 59 32 WSW 1005,7 20 0 0,0
16.01.2018 02:00:00 9,4 7,5 8,4 8,3 9,6 27 15 51 28 WSW 1005,6 16 0 0,0
16.01.2018 01:00:00 9,6 7,9 8,6 8,4 9,6 18 10 46 25 WSW 1006,1 10 0 0,0
16.01.2018 00:00:00 10,1 8,4 9,0 8,4 9,6 31 17 56 31 WSW 1006,3 10 0 0,0
15.01.2018 23:00:00 9,9 8,5 9,4 8,3 9,6 26 14 45 25 WSW 1006,4 20 0 0,0
15.01.2018 22:00:00 10,0 7,6 9,2 8,3 9,6 23 12 44 24 WSW 1006,2 20 0 0,0
15.01.2018 21:00:00 10,3 7,7 9,5 8,3 9,6 31 17 49 27 WSW 1006,4 10 0 0,0
15.01.2018 20:00:00 10,3 8,2 9,2 8,3 9,6 16 9 35 19 WSW 1005,9 20 0 0,0
15.01.2018 19:00:00 10,4 8,3 9,2 8,4 9,6 22 12 53 29 W 1006,2 19 0 0,0
15.01.2018 18:00:00 10,9 8,3 9,8 8,4 9,6 22 12 37 20 W 1004,6 10 2 0,0
15.01.2018 17:00:00 11,6 9,7 10,6 8,1 9,6 26 14 49 26 W 1004,7 10 0 0,0
15.01.2018 16:00:00 11,5 10,4 10,1 7,9 9,6 24 13 47 25 WSW 1004,1 10 0 0,2
15.01.2018 15:00:00 10,4 9,8 9,2 7,6 9,6 29 16 59 32 SW 1004,5 4,8 0 1,4
15.01.2018 14:00:00 9,5 8,7 8,7 7,4 9,6 31 17 66 36 SW 1005,5 2,8 0 1,1
15.01.2018 13:00:00 9,1 8,2 8,3 7,1 9,6 38 21 70 38 SSW 1007,2 4,2 0 1,0
15.01.2018 12:00:00 8,5 7,7 7,6 6,9 9,6 34 18 56 31 SSW 1009,2 4,0 0 2,2
15.01.2018 11:00:00 7,9 7,1 6,7 6,7 9,6 34 18 50 27 SSW 1011,2 3,7 0 1,2
15.01.2018 10:00:00 6,9 6,2 6,0 6,6 9,6 29 15 43 23 SSW 1012,7 5 0 1,0
15.01.2018 09:00:00 6,1 5,4 5,8 6,6 9,6 20 11 37 20 SSW 1013,9 10 0 0,0
15.01.2018 08:00:00 5,9 5,3 5,6 6,6 9,6 21 11 34 19 SSW 1014,8 6 0 0,0
15.01.2018 07:00:00 5,7 5,1 5,6 6,6 9,6 17 9 32 17 SSW 1015,6 4,9 0 0,0
15.01.2018 06:00:00 5,6 5,2 5,4 6,6 9,6 18 10 31 17 SSW 1016,3 3,6 0 0,0
15.01.2018 05:00:00 5,5 5,2 5,4 6,6 9,6 18 10 28 15 SSW 1017,2 3,1 0 0,0
15.01.2018 04:00:00 5,5 5,2 5,2 6,6 9,6 13 7 22 12 SSW 1017,9 2,3 0 0,0
15.01.2018 03:00:00 5,4 5,3 5,2 6,6 9,7 9 5 19 10 SW 1018,8 3,2 0 0,0
15.01.2018 02:00:00 5,3 5,2 4,6 6,6 9,7 11 6 23 13 SSW 1019,0 1,8 0 0,0
15.01.2018 01:00:00 5,3 5,2 4,9 6,6 9,7 11 6 23 13 SSW 1019,9 4,5 0 0,0
15.01.2018 00:00:00 5,2 5,1 4,7 6,6 9,7 9 5 13 7 SSW 1020,4 0,2 0 0,0
14.01.2018 23:00:00 4,7 4,4 3,9 6,6 9,7 8 4 18 10 W 1020,6 0,4 0 0,0
14.01.2018 22:00:00 3,8 3,4 1,8 6,8 9,7 4 2 8 4 ESE 1019,9 1,0 0 0,0
14.01.2018 21:00:00 4,4 3,8 2,6 7,0 9,7 4 2 8 4 SE 1019,6 2,3 0 0,0
14.01.2018 20:00:00 5,2 4,5 5,0 7,1 9,7 6 3 12 6 E 1019,3 3,5 0 0,0
14.01.2018 19:00:00 5,7 4,7 5,7 7,2 9,7 8 4 11 6 E 1019,0 4,3 0 0,0
14.01.2018 18:00:00 6,1 4,7 6,0 7,3 9,7 6 3 14 7 NW 1018,8 6 0 0,0
14.01.2018 17:00:00 6,8 4,9 7,0 7,3 9,7 8 4 9 5 N 1018,1 9 18 0,0
14.01.2018 16:00:00 7,8 5,1 9,2 7,1 9,7 7 4 9 5 N 1017,6 10 51 0,0
14.01.2018 15:00:00 8,3 5,4 9,6 6,7 9,7 3 2 9 5 N 1016,9 9 51 0,0
14.01.2018 14:00:00 6,5 4,7 8,3 6,3 9,7 6 3 9 5 NE 1017,2 8 0 0,0
14.01.2018 13:00:00 5,5 3,7 6,1 5,9 9,7 4 2 10 5 - 1017,3 6 11 0,0
14.01.2018 12:00:00 4,5 3,2 5,2 5,6 9,7 8 4 10 6 E 1017,8 5 0 0,0
14.01.2018 11:00:00 3,6 2,4 3,7 5,4 9,7 6 3 13 7 E 1017,3 4,5 0 0,0
14.01.2018 10:00:00 3,0 2,0 3,0 5,4 9,7 11 6 15 8 ENE 1016,7 3,9 0 0,0
14.01.2018 09:00:00 2,8 2,1 2,7 5,4 9,8 5 3 10 5 NE 1016,5 3,6 0 0,0
14.01.2018 08:00:00 2,7 1,8 2,4 5,4 9,8 4 2 16 9 NNE 1015,7 3,5 0 0,0
14.01.2018 07:00:00 2,6 1,7 2,4 5,4 9,8 11 6 14 8 NE 1015,2 3,6 0 0,0
14.01.2018 06:00:00 2,5 1,6 2,3 5,5 9,8 10 5 17 9 NE 1014,9 3,8 0 0,0
14.01.2018 05:00:00 2,5 1,6 1,7 5,5 9,8 9 5 15 8 NE 1014,6 3,7 0 0,0
14.01.2018 04:00:00 2,1 1,4 1,7 5,6 9,8 8 5 13 7 NNE 1014,8 3,0 0 0,0
14.01.2018 03:00:00 2,5 1,8 2,0 5,7 9,8 8 4 11 6 NE 1014,7 3,7 0 0,0
14.01.2018 02:00:00 2,7 1,8 2,4 5,8 9,8 9 5 15 8 NE 1014,7 4,9 0 0,0
14.01.2018 01:00:00 3,3 2,3 3,1 5,8 9,8 12 6 18 10 NE 1014,9 4,8 0 0,0
14.01.2018 00:00:00 3,5 2,3 3,2 5,9 9,8 10 5 20 11 E 1015,1 5 0 0,0
13.01.2018 23:00:00 3,7 2,4 3,6 6,0 9,8 13 7 24 13 E 1015,2 6 0 0,0
13.01.2018 22:00:00 4,0 2,5 3,8 6,0 9,8 18 10 28 15 E 1015,0 8 0 0,0
13.01.2018 21:00:00 4,3 2,8 4,0 6,1 9,8 18 10 30 16 E 1015,3 7 0 0,0
13.01.2018 20:00:00 4,3 2,6 3,8 6,2 9,8 19 10 37 20 E 1015,5 10 0 0,0
13.01.2018 19:00:00 4,2 2,7 4,1 6,3 9,8 19 10 31 17 ESE 1015,6 10 0 0,0
13.01.2018 18:00:00 4,4 2,9 4,3 6,4 9,8 19 10 29 16 E 1015,5 11 0 0,0
13.01.2018 17:00:00 5,0 3,0 4,9 6,4 9,8 16 9 30 16 ESE 1015,6 13 0 0,0
13.01.2018 16:00:00 5,2 3,4 5,5 6,4 9,9 22 12 29 16 E 1015,3 12 0 0,0
13.01.2018 15:00:00 5,1 3,6 5,4 6,3 9,9 21 11 30 16 E 1015,9 12 0 0,0
13.01.2018 14:00:00 5,0 3,5 5,6 6,1 9,8 15 8 24 13 E 1016,8 11 0 0,0
13.01.2018 13:00:00 4,9 3,7 5,4 6,0 9,9 16 9 24 13 ESE 1017,7 9 0 0,0
13.01.2018 12:00:00 4,7 3,7 4,6 5,8 9,9 16 9 27 14 ESE 1018,1 6 0 0,0
13.01.2018 11:00:00 4,2 3,3 4,1 5,7 9,9 15 8 27 15 ESE 1018,8 6 0 0,0
13.01.2018 10:00:00 3,9 3,2 3,8 5,7 9,9 18 10 30 16 ESE 1018,9 6 0 0,0
13.01.2018 09:00:00 3,6 3,3 3,4 5,6 9,9 15 8 28 15 SE 1019,1 3,1 0 0,0
13.01.2018 08:00:00 3,3 3,2 3,2 5,6 9,9 18 10 24 13 ESE 1019,0 1,3 0 0,0
13.01.2018 07:00:00 3,1 2,8 3,2 5,6 9,9 13 7 24 13 SE 1019,3 1,1 0 0,0
13.01.2018 06:00:00 3,1 2,8 2,6 5,6 9,9 15 8 31 17 ESE 1019,6 2,2 0 0,0
13.01.2018 05:00:00 2,8 2,5 1,6 5,6 9,9 18 10 27 14 ESE 1020,2 2,2 0 0,0
13.01.2018 04:00:00 2,4 1,8 1,4 5,9 9,9 14 8 22 12 ESE 1021,0 3,6 0 0,0
13.01.2018 03:00:00 2,7 2,0 -0,1 6,1 9,9 11 6 17 9 ESE 1021,7 8 0 0,0
13.01.2018 02:00:00 3,3 2,1 0,1 6,4 9,9 6 3 13 7 SE 1022,4 12 0 0,0
13.01.2018 01:00:00 2,7 1,5 0,9 6,6 9,9 11 6 18 10 ESE 1022,7 11 0 0,0
13.01.2018 00:00:00 4,9 2,9 4,6 6,7 9,9 12 6 16 9 ESE 1023,3 19 0 0,0
12.01.2018 23:00:00 5,0 2,9 4,6 6,7 9,9 8 4 23 13 SE 1024,0 19 0 0,0
12.01.2018 22:00:00 4,8 3,0 4,5 6,8 9,9 13 7 19 10 ESE 1024,5 10 0 0,0
12.01.2018 21:00:00 4,6 2,9 4,5 6,8 9,9 9 5 23 12 ESE 1025,1 10 0 0,0
12.01.2018 20:00:00 4,5 2,8 4,4 6,9 9,9 10 5 29 15 SSE 1025,5 17 0 0,0
12.01.2018 19:00:00 4,7 3,0 4,6 7,0 9,9 16 8 24 13 SE 1025,2 15 0 0,0
12.01.2018 18:00:00 5,2 3,2 5,0 7,1 9,9 15 8 23 13 SE 1024,8 15 0 0,0
12.01.2018 17:00:00 5,4 3,4 5,2 7,2 9,9 11 6 16 9 ESE 1025,0 10 0 0,0
12.01.2018 16:00:00 5,5 3,5 5,7 7,1 9,9 7 4 12 6 SE 1025,4 13 0 0,0
12.01.2018 15:00:00 5,4 3,1 5,5 7,1 9,9 6 3 18 10 S 1025,7 15 0 0,0
12.01.2018 14:00:00 5,4 3,7 5,9 7,0 9,9 13 7 20 11 ESE 1025,7 11 0 0,0
12.01.2018 13:00:00 5,5 3,8 5,8 6,9 9,9 5 3 14 8 SE 1026,8 9 0 0,0
12.01.2018 12:00:00 5,5 3,8 6,0 6,8 9,9 5 3 15 8 SE 1027,0 9 0 0,0
12.01.2018 11:00:00 5,2 4,3 5,1 6,7 9,9 3 2 10 5 SE 1027,2 8 0 0,0
12.01.2018 10:00:00 4,9 4,6 4,8 6,6 9,9 4 2 8 4 S 1026,8 3,5 0 0,0
12.01.2018 09:00:00 4,8 4,7 4,6 6,6 9,9 5 3 8 4 - 1026,1 2,7 0 0,0
12.01.2018 08:00:00 4,5 4,4 4,0 6,5 9,9 2 1 8 5 - 1026,3 2,5 0 0,0
12.01.2018 07:00:00 3,9 3,8 0,1 6,6 9,9 6 3 9 5 ESE 1025,6 0,4 0 0,0
12.01.2018 06:00:00 3,5 3,2 0,0 6,8 9,9 0 0 8 4 N 1025,5 0,2 0 0,0
12.01.2018 05:00:00 3,9 3,5 1,4 7,0 9,9 3 2 10 5 NW 1025,7 1,1 0 0,0
12.01.2018 04:00:00 5,2 4,8 4,2 7,1 9,9 8 4 9 5 NNW 1025,6 4,1 0 0,0
12.01.2018 03:00:00 4,8 4,2 2,1 7,2 9,9 0 0 7 4 N 1025,2 3,0 0 0,0
12.01.2018 02:00:00 5,4 4,7 4,1 7,3 9,9 7 4 13 7 N 1024,7 3,8 0 0,0
12.01.2018 01:00:00 5,6 4,7 4,6 7,5 9,9 9 5 21 11 NNW 1025,1 5 0 0,0
12.01.2018 00:00:00 5,9 4,9 5,4 7,6 9,9 13 7 19 10 N 1025,0 9 0 0,0
11.01.2018 23:00:00 5,7 4,5 5,3 7,7 9,9 9 5 21 11 N 1024,6 9 0 0,0
11.01.2018 22:00:00 5,8 4,6 5,6 7,7 9,9 10 6 18 10 NNE 1023,6 13 0 0,0
11.01.2018 21:00:00 5,8 4,6 5,7 7,8 9,9 12 7 21 11 NNE 1023,2 15 0 0,0
11.01.2018 20:00:00 6,1 4,6 5,3 8,0 9,9 16 9 22 12 NNE 1023,1 19 0 0,0
11.01.2018 19:00:00 5,9 4,7 4,3 8,2 9,9 16 9 20 11 N 1021,9 10 0 0,0
11.01.2018 18:00:00 7,3 5,6 6,8 8,4 10,0 13 7 25 14 N 1020,8 20 3 0,0
11.01.2018 17:00:00 7,7 5,7 7,6 8,5 9,9 15 8 24 13 N 1020,1 20 22 0,0
11.01.2018 16:00:00 8,5 6,3 8,3 8,4 9,9 16 8 22 12 NNE 1019,0 20 0 0,0
11.01.2018 15:00:00 8,5 6,6 7,9 8,3 9,9 10 6 16 9 NNE 1017,8 20 0 0,0
11.01.2018 14:00:00 8,2 6,5 8,1 8,2 9,9 10 5 17 9 NNE 1017,1 20 0 0,0
11.01.2018 13:00:00 8,0 7,1 8,0 8,0 10,0 10 5 14 8 NNE 1016,5 20 0 0,0
11.01.2018 12:00:00 7,8 7,0 7,5 7,8 10,0 4 2 6 4 N 1015,8 5 0 0,2
11.01.2018 11:00:00 7,1 6,5 7,1 7,7 10,0 3 1 6 3 SE 1014,7 6 0 0,0
11.01.2018 10:00:00 7,0 6,6 6,5 7,6 9,9 3 2 6 3 SE 1013,5 4,1 0 0,0
11.01.2018 09:00:00 6,7 6,3 5,8 7,6 9,9 4 2 6 3 E 1012,2 15 0 0,0
11.01.2018 08:00:00 6,7 6,0 6,1 7,6 9,9 3 2 9 5 S 1010,8 20 0 0,0
11.01.2018 07:00:00 6,9 6,2 6,6 7,6 9,9 8 4 13 7 SSW 1009,4 10 0 0,0
11.01.2018 06:00:00 7,0 6,6 6,8 7,5 9,9 6 4 17 9 SE 1008,3 15 0 0,0
11.01.2018 05:00:00 7,0 6,6 6,8 7,5 9,9 8 5 20 11 SSE 1007,5 16 0 0,2
11.01.2018 04:00:00 7,0 6,6 6,8 7,5 10,0 13 7 19 11 ESE 1006,8 7 0 0,2
11.01.2018 03:00:00 7,2 6,3 6,8 7,4 10,0 13 7 22 12 ESE 1006,4 7 0 0,0
11.01.2018 02:00:00 7,2 6,1 6,5 7,4 9,9 15 8 26 14 SE 1006,0 20 0 0,0
11.01.2018 01:00:00 6,8 5,7 5,5 7,4 10,0 16 8 23 13 ESE 1005,9 20 0 0,0
11.01.2018 00:00:00 6,7 5,2 5,4 7,4 9,9 15 8 24 13 SE 1006,1 20 0 0,0
10.01.2018 23:00:00 6,4 5,2 5,4 7,6 9,9 16 9 24 13 SE 1006,3 20 0 0,0
10.01.2018 22:00:00 7,2 5,5 5,7 7,6 9,9 15 8 23 12 SSE 1006,6 10 0 0,0
10.01.2018 21:00:00 6,3 5,3 4,5 7,9 9,9 13 7 18 10 SE 1006,9 10 0 0,0
10.01.2018 20:00:00 5,9 4,9 3,5 8,2 9,9 11 6 16 9 SE 1007,4 20 0 0,0

tt = Température de l'air
td = dewpoint
tt 5cm = Température de l'air 5cm
tt -20cm = Température de l'air -20cm
tt -100cm = Température de l'air -100cm
ff = Vitesse du vent
fx = gusts
dd = Direction du vent
ppp = reduced air pressure
vv = visibility
sd = Ensoleillement
rr = Quantités de précipitations

stations d'obs. à proximité